Starlink 3831

operational
NORAD ID: 52332 Int'l Des: 2022-045 Owner: SPXS Country: US Constellation: starlink
LEOCIRCULAR

Starlink 3831について

説明を読み込み中...

リアルタイム位置

3D地球を読み込み中...

次回通過

高度履歴

Altitude vs Time

uPlot chart will show altitude changes over time

軌道要素

1 52332U 22045B 26073.69377322 .00000809 00000-0 68948-4 0 9991
2 52332 53.2176 186.6678 0001769 87.2182 272.9013 15.08838896216395
Epoch: Mar 14, 2026 • Age: 18 hours

現在のステータス

高度 545.0 km
速度 7.60 km/s
衛星直下点 52.83°N, 46.94°W
打ち上げ日 Apr 29, 2022
運用期間 3.8 years
タイプ internet

技術仕様

分類 Payload
質量 297.00 kg
乾燥質量 275.00 kg
総質量 297.00 kg
長さ 0.20 m
直径 2.80 m
スパン 9.00 m
形状 Box + pan
製造者 SPXS
バスタイプ Starlink
フェーズステータス In Orbit
所有者/国 SPXS/US

大規模コンステレーション

Loading constellations...